Simultaneous Nadir Overpasses (SNOs) Predictions

Prediction of SNOs between FY3D and TERRA Satellite Orbit:

Table of predicted SNOs for the next 14.0 days since TLE Epoch: 2/4/2023
Index Date (FY3D) Time (FY3D) Lat,Lon (FY3D) SZA (FY3D ) Date (TERRA) Time (TERRA) Lat,Lon (TERRA) SZA (TERRA ) Distance(km) Time Diff (sec)
1 02/06/2023 06:14:55 -72.86, -93.99 91.52 02/06/2023 06:15:59 -72.87, -93.94 91.52 2.03 64
2 02/06/2023 07:05:39 72.75, 73.56 88.35 02/06/2023 07:05:23 72.75, 73.48 88.36 2.59 16
3 02/08/2023 18:19:17 73.32, -96.02 88.18 02/08/2023 18:20:26 73.21, -94.43 88.04 52.40 69
4 02/08/2023 19:09:52 -72.80, 72.43 92.38 02/08/2023 19:09:57 -72.83, 72.47 92.35 3.36 5
5 02/08/2023 20:00:34 72.58,-119.81 87.39 02/08/2023 19:59:22 72.64,-120.22 87.46 15.12 72
6 02/11/2023 07:14:05 72.81, 71.38 86.83 02/11/2023 07:14:30 72.82, 71.29 86.83 2.75 25
7 02/11/2023 08:04:49 -72.75,-121.17 93.25 02/11/2023 08:03:55 -72.76,-121.16 93.23 1.74 54
8 02/13/2023 19:18:18 -72.88, 70.21 93.93 02/13/2023 19:19:04 -72.87, 70.22 93.95 1.74 46
9 02/13/2023 20:09:02 72.77,-122.23 85.94 02/13/2023 20:08:27 72.77,-122.30 85.95 2.08 35
10 02/16/2023 07:22:30 72.91, 69.13 85.25 02/16/2023 07:23:34 72.90, 69.14 85.23 1.00 64
11 02/16/2023 08:13:13 -72.79,-123.31 94.90 02/16/2023 08:13:00 -72.81,-123.39 94.88 3.30 13



Historial Predications of SNOs between FY3D and TERRA
